Skip Navigation Links
NOAA logo - Click to go to the NOAA homepage
NOAA's National Weather Service
Alaska Aviation Weather Unit
  NWS logo - Click to go to the NWS homepage
Left Navbar Graphic     09 AKDT = 17 GMT

   
NOAA is celebrating 200 years of science, service, and stewardship. Visit the NOAA 200th celebration Web site to learn more.
USA.gov is the U.S. Government's official Web portal to all Federal, state and local government Web resources and services.
Facebook
NWS on Facebook

Important Change Regarding the AAWU Web Presence

 

Over the last several months, the AAWU has been working to navigate its webpages to a nationally supported server. Security, as well as other needs, have necessitated the change.  In the process, we have made an effort to enhance the functionality of our website, as well as some of our products. As of June 20, 2017, aawu.arh.noaa.gov will be discontinued. The new AAWU web address is weather.gov/aawu. It is now live and will run in-parallel with the old site until it is discontinued. Please send any feedback or questions regarding the new webpages to nws.ar.aawu.webauthors@noaa.gov.  Thank you for your patience during this time of transition.
AAWU Home :: Display TAF Add Bookmark
TAF PAEN 271141Z 2712/2812 VRB04KT P6SM SCT100
     FM271800 04010KT P6SM FEW100 SCT250
     FM280400 04008KT P6SM -SHRA BKN050 OVC080=
PAEN 271109Z AUTO 00000KT 1 3/4SM BR FEW120 01/01 A3011=

METAR PAEN 271153Z AUTO 00000KT 1/2SM FG BKN110 01/01 A3011=

PAEN 271159Z AUTO 04003KT 1SM BR FEW002 OVC110 01/01 A3011=

PAEN 271203Z AUTO 06005KT 3SM BR FEW002 OVC110 01/01 A3011=

METAR PAEN 271253Z AUTO 01004KT 10SM BKN110 00/M01 A3011=

METAR PAEN 271353Z 03004KT 10SM SCT100 BKN120 M01/M01 A3010=

METAR PAEN 271453Z 03005KT 10SM FEW075 01/00 A3010=

METAR PAEN 271553Z 02006KT 10SM CLR 03/02 A3010=

METAR PAEN 271653Z 01008KT 10SM OVC090 05/02 A3009=


NOAA's National Weather Service
Alaska Aviation Weather Unit
6930 Sand Lake Road
Anchorage, AK 99502-1845
Disclaimer
Credits
Glossary
Privacy Policy
About Us
Career Opportunities
Contact AAWU Internet Services Site last modified: April, 17th 2012